Precipitable_Water
1.41 1.45 1.39 1.39 1.40 1.26 1.21 1.19 1.18 1.11 1.06 1.02 1.00 0.97 0.92 0.85 0.80 0.77 0.73 0.71 0.72 0.72
1.38 1.48 1.38 1.39 1.45 1.36 1.28 1.27 1.21 1.15 1.08 1.07 1.05 1.04 1.01 0.95 0.90 0.88 0.86 0.86 0.86 0.82
1.34 1.44 1.43 1.42 1.41 1.31 1.25 1.28 1.21 1.17 1.14 1.11 1.12 1.13 1.11 1.06 1.00 0.94 0.94 0.93 0.92 0.91
1.33 1.41 1.45 1.40 1.30 1.24 1.25 1.25 1.22 1.19 1.17 1.16 1.17 1.20 1.17 1.12 1.08 1.03 0.98 0.99 0.96 0.93
1.30 1.36 1.35 1.28 1.23 1.26 1.25 1.23 1.19 1.18 1.17 1.16 1.18 1.20 1.16 1.12 1.08 1.05 1.00 0.99 1.01 0.99
1.21 1.26 1.27 1.23 1.28 1.34 1.33 1.20 1.19 1.19 1.18 1.21 1.22 1.21 1.19 1.15 1.12 1.11 1.09 1.08 1.07 1.07
1.14 1.21 1.23 1.24 1.26 1.29 1.30 1.24 1.22 1.22 1.22 1.26 1.28 1.26 1.23 1.22 1.21 1.21 1.21 1.22 1.22 1.23
1.12 1.20 1.20 1.19 1.20 1.22 1.24 1.26 1.28 1.26 1.26 1.25 1.24 1.26 1.26 1.27 1.27 1.25 1.26 1.27 1.25 1.23
1.14 1.16 1.16 1.16 1.17 1.17 1.16 1.15 1.13 1.15 1.17 1.15 1.16 1.19 1.23 1.27 1.24 1.21 1.19 1.15 1.17 1.13
1.14 1.12 1.12 1.13 1.15 1.13 1.13 1.12 1.08 1.07 1.10 1.10 1.13 1.20 1.17 1.20 1.20 1.17 1.12 1.10 1.10 1.06
1.15 1.12 1.12 1.12 1.11 1.09 1.10 1.09 1.07 1.06 1.06 1.07 1.07 1.10 1.11 1.11 1.13 1.06 1.03 1.01 1.04 1.01
1.06 1.05 1.05 1.04 1.05 1.08 1.07 1.06 1.06 1.06 1.04 1.02 1.00 1.01 1.03 1.02 0.99 0.96 0.96 0.96 0.94 0.90
1.00 1.00 1.00 1.00 1.00 1.01 1.03 1.02 1.02 1.02 1.03 1.01 0.99 0.98 0.96 0.96 0.92 0.88 0.84 0.81 0.79 0.76
0.93 0.94 0.94 0.94 0.96 0.96 0.96 0.96 0.93 0.92 0.91 0.91 0.92 0.90 0.90 0.87 0.82 0.77 0.73 0.68 0.62 0.59
Wind_Speed
31 32 28 33 30 28 28 27 27 26 25 24 24 24 24 23 24 24 25 25 25 25
32 33 30 27 30 30 30 30 29 28 27 26 26 25 25 26 26 26 26 27 27 27
32 33 31 27 27 28 28 29 29 29 28 27 27 27 27 27 27 27 28 28 28 29
30 31 29 28 27 26 26 26 28 28 29 29 29 29 29 28 29 29 29 29 29 29
30 30 30 28 28 26 27 28 29 29 29 29 29 30 30 30 30 30 30 30 30 30
31 31 31 31 31 30 30 30 30 30 30 30 30 30 30 31 31 31 32 32 32 32
31 31 31 31 31 31 31 31 31 31 31 31 31 32 31 31 32 33 33 34 34 34
32 32 32 32 32 32 32 32 32 32 32 33 33 33 33 34 34 34 33 32 32 32
34 33 34 34 34 33 33 33 33 33 34 34 34 33 34 34 33 32 32 32 31 32
36 35 34 34 34 34 34 33 33 33 33 33 33 34 34 32 31 32 32 32 33 33
38 37 36 35 35 35 35 35 34 34 35 34 34 35 33 33 33 33 33 34 34 34
39 38 37 37 37 37 37 36 35 35 35 35 35 34 34 34 34 33 33 34 35 36
38 39 38 38 38 38 37 36 36 36 36 36 35 36 35 35 34 34 35 36 37 38
36 36 36 36 36 36 36 36 36 36 35 36 34 34 36 36 37 38 39 39 38 37
Wind_Direction
224 225 228 227 229 227 228 230 231 232 234 236 239 242 244 248 251 252 253 255 257 259
227 227 229 230 225 232 232 232 232 233 235 238 241 245 248 251 254 254 256 257 258 260
230 231 231 231 232 230 232 230 232 235 236 241 244 247 250 253 255 256 258 258 259 261
232 235 231 234 230 229 230 233 234 238 240 244 247 250 252 254 255 257 258 259 260 263
232 233 231 230 229 232 235 236 239 240 243 247 250 252 253 254 256 257 258 260 261 264
230 230 231 232 234 238 239 240 242 245 247 249 251 253 255 257 258 258 260 262 264 266
230 231 233 235 238 240 240 242 245 247 249 251 253 255 257 258 259 260 262 263 266 268
233 234 236 238 241 242 242 244 247 249 251 253 255 257 258 259 260 261 262 264 265 267
234 236 238 240 241 243 245 247 249 250 253 254 256 258 259 258 259 260 260 264 265 267
235 237 239 240 241 243 246 248 250 251 254 254 257 260 259 256 259 261 262 266 265 269
236 238 240 241 242 244 247 249 251 253 255 257 258 259 261 260 263 264 265 267 270 272
238 240 242 243 245 246 247 250 253 255 257 256 259 258 260 262 264 264 266 267 270 273
239 241 243 245 246 248 250 251 254 255 259 257 257 260 262 262 263 264 266 269 272 274
239 241 244 245 246 248 249 251 254 256 256 259 260 261 262 264 266 267 269 271 272 273